Regional Weather Roundup
Issued by NWS

Home | Current Version | Previous Version | Graphics & Text | Print | Product List | Glossary On
Versions: 1 2 3 4 5 6 7 8 9 10 11 12 13 14 15 16 17 18 19 20 21 22 23 24 25 26 27 28 29 30 31 32 33 34 35 36 37 38 39 40 41 42 43 44 45 46 47 48 49 50
876
ASUS43 KIND 172059
RWRIN

WEATHER ROUNDUP FOR INDIANA
NATIONAL WEATHER SERVICE INDIANAPOLIS IN
400 PM EST SAT FEB 17 2018

NOTE: "FAIR" INDICATES FEW OR NO CLOUDS BELOW 12,000 FEET WITH NO
SIGNIFICANT WEATHER AND/OR OBSTRUCTIONS TO VISIBILITY.

* - STATION DOES NOT REPORT WEATHER SUCH AS PRECIPITATION OR FOG.

+ - STATION NOT QUALITY CONTROLLED BY THE NATIONAL WEATHER SERVICE.
    USE DATA WITH CAUTION...ESPECIALLY DEWPOINT AND RELATIVE
    HUMIDITY OBSERVATIONS.

INZ001>003-010>013-019-020-172200-
NORTHWEST INDIANA

CITY           SKY/WX    TMP DP  RH WIND       PRES   REMARKS
GARY /AIRPORT/ CLOUDY    37  27  65 S8        29.93F WCI  31
KNOX *+        CLOUDY    34  28  80 SW8       29.97S WCI  27
MICHIGAN CITY+ CLOUDY    34  27  75 S7        29.94F WCI  28
MONTICELLO +   LGT SNOW  33  31  94 S6        29.97S WCI  27
RENSSELAER +   SNOW      32  30  93 S5        29.96F VSB 1/2 WCI  27
VALPARAISO     CLOUDY    36  28  75 S8        29.95F WCI  29

$$

LMZ046-743>745-172200-
SOUTHERN LAKE MICHIGAN

STATION/POSITION TIME  TEMP    WIND        PRES    WAVE
                       AIR SEA DIR/SP/G            HT
                 (UTC) (F)     (DEG/KT/KT) (MB)    (FT)
BURNS HARBOR     2040   34     170/  8/ 11 1014.2F
MICHIGAN CITY    2030   34     170/ 10/ 11   N/A

$$

INZ004-005-014>016-021>024-172200-
NORTH CENTRAL INDIANA

CITY           SKY/WX    TMP DP  RH WIND       PRES   REMARKS
ELKHART        MOSUNNY   34  25  69 SW7       29.98S WCI  28
GOSHEN         CLOUDY    34  26  72 W9        29.97F WCI  27
PERU/GRISSOM   FLURRIES  35  34  99 SW7       29.97F WCI  29
SOUTH BEND     CLOUDY    33  25  72 SW10      29.97S WCI  25
WARSAW +       CLOUDY    34  28  80 SW3       29.97S

$$

INZ006>009-017-018-025>027-172200-
NORTHEAST INDIANA

CITY           SKY/WX    TMP DP  RH WIND       PRES   REMARKS
AUBURN +       CLOUDY    34  28  80 SW5       29.98F WCI  30
FORT WAYNE     CLOUDY    35  28  75 SW8       29.98S WCI  29
KENDALLVILLE + CLOUDY    33  27  77 SW8       29.96F WCI  26

$$

INZ028-029-035-036-043>045-051>053-172200-
WEST CENTRAL INDIANA

CITY           SKY/WX    TMP DP  RH WIND       PRES   REMARKS
CRAWFORDSVL +  LGT SNOW  31  31 100 S7        29.98S WCI  25
GREENCASTLE +  RAIN      34  32  93 SW3       30.01R
LAFAYETTE      LGT SNOW  32  31  96 SW5       29.97F VSB 1   WCI  27
TERRE HAUTE    LGT SNOW  35  34  96 SW9       30.01R FOG     WCI  28

$$

INZ030>032-037>040-046>048-054>057-064-065-172200-
CENTRAL INDIANA

CITY           SKY/WX    TMP DP  RH WIND       PRES   REMARKS
ANDERSON       CLOUDY    34  32  93 SW7       29.99R WCI  28
COLUMBUS       LGT SNOW  34  32  93 S9        30.01R FOG     WCI  26
GREENWOOD *+   CLOUDY   N/A N/A N/A SW3       29.99R
INDIANAPOLIS   LGT RAIN  35  33  92 SW8       29.99R WCI  29
-EAGLE CREEK   LGT RAIN  36  32  85 SW5       29.98R WCI  32
KOKOMO +       LGT SNOW  34  29  82 S6        29.98F WCI  29
MT COMFORT *+  CLOUDY    34  34 100 SW6       29.99R WCI  29
SHELBYVILLE    CLOUDY    35  32  88 SW9       29.99R WCI  28

$$

INZ033-034-041-042-049-050-058-059-172200-
EAST CENTRAL INDIANA

CITY           SKY/WX    TMP DP  RH WIND       PRES   REMARKS
MUNCIE         CLOUDY    35  32  88 W6        29.98R WCI  30
RICHMOND +     CLOUDY    32  32 100 S8        29.97R FOG     WCI  25

$$

INZ060-061-067>069-081>083-085>088-172200-
SOUTHWEST INDIANA

CITY           SKY/WX    TMP DP  RH WIND       PRES   REMARKS
EVANSVILLE     CLOUDY    36  36 100 CALM      30.05R FOG
HUNTINGBURG +  CLOUDY    37  35  92 S8        30.04R FOG     WCI  31

$$

INZ062-063-066-070>080-084-089>092-172200-
SOUTH CENTRAL AND SOUTHEAST INDIANA

CITY           SKY/WX    TMP DP  RH WIND       PRES   REMARKS
BLOOMINGTON    LGT RAIN  35  33  92 SW6       30.00R FOG     WCI  30
FRENCH LICK *+ CLOUDY    34 N/A N/A SW3       30.01R
SEYMOUR +      CLOUDY    36  34  93 S5        30.01S FOG     WCI  32

$$





USA.gov is the U.S. government's official web portal to all federal, state and local government web resources and services.